Mt. Pocono, PA

7:17 PM EST on January 18, 2018 (GMT -0500)
Pocono Mountains Municipal

Weather History for KMPO - February, 2014

Change the Weather History Date:

Sunday, February 2, 2014

  Actual Average Record
Temperature  
Mean Temperature 37 °F 24 °F  
Max Temperature 43 °F 32 °F 50 °F (1973)
Min Temperature 31 °F 16 °F -12 °F (1918)
Degree Days  
Heating Degree Days 28 41  
Month to date heating degree days 63 82  
Since 1 July heating degree days 4241 4113  
Cooling Degree Days 0 0  
Month to date cooling degree days 0 0  
Year to date cooling degree days 0 0  
Moisture  
Dew Point 30 °F    
Average Humidity 74    
Maximum Humidity 96    
Minimum Humidity 51    
Precipitation  
Precipitation 0.03 in 0.08 in 1.92 in (1981)
Month to date precipitation 0.03 0.15  
Year to date precipitation 3.38 3.00  
Sea Level Pressure  
Sea Level Pressure 29.97 in    
Wind  
Wind Speed 10 mph (NW)    
Max Wind Speed 16 mph    
Max Gust Speed 21 mph    
Visibility 8 miles    
Events Rain    
T = Trace of Precipitation, MM = Missing Value Source: NWS Daily Summary

Daily Weather History Graph

Daily Weather History Graph

Search for Another Location

Airport or City:

Trip Planner

Search our weather history database for the weather conditions in past years. The results will help you decide how hot, cold, wet, or windy it might be!

Date:

Astronomy

Feb. 02, 2014 Rise Set
Actual Time 7:11 AM EST 5:19 PM EST
Civil Twilight 6:42 AM EST 5:48 PM EST
Nautical Twilight 6:09 AM EST 6:21 PM EST
Astronomical Twilight 5:37 AM EST 6:53 PM EST
Moon 8:34 AM EST (2/2) 9:03 PM EST (2/2)
Length of Visible Light 11h 06m
Length of Day
10h 08m
Waxing Crescent, 11% of the Moon is Illuminated
Feb 2
Waxing Crescent
Feb 6
First Quarter
Feb 14
Full
Feb 22
Last Quarter
Mar 1
New

Hourly Weather History & Observations

Time (EST) Temp. Windchill Dew Point Humidity Pressure Visibility Wind Dir Wind Speed Gust Speed Precip Events Conditions
12:07 AM 30.9 °F - 27.0 °F 85% 29.95 in 10.0 mi Calm Calm - N/A   Partly Cloudy
12:53 AM 32.0 °F 28.7 °F 28.0 °F 85% 29.98 in 8.0 mi West 3.5 mph - N/A   Clear
1:53 AM 32.0 °F 27.5 °F 28.0 °F 85% 29.95 in 7.0 mi WNW 4.6 mph - N/A   Clear
2:53 AM 33.1 °F 25.5 °F 28.9 °F 85% 29.93 in 9.0 mi WNW 9.2 mph - N/A   Clear
3:53 AM 34.0 °F 26.6 °F 28.0 °F 79% 29.92 in 9.0 mi WNW 9.2 mph - N/A   Clear
4:53 AM 35.1 °F 27.4 °F 27.0 °F 72% 29.91 in 10.0 mi WNW 10.4 mph - N/A   Clear
5:53 AM 36.0 °F 28.5 °F 25.0 °F 64% 29.91 in 10.0 mi WNW 10.4 mph - N/A   Clear
6:53 AM 37.0 °F 28.1 °F 24.1 °F 59% 29.92 in 10.0 mi WNW 15.0 mph - N/A   Clear
7:53 AM 37.9 °F 30.5 °F 23.0 °F 55% 29.92 in 10.0 mi WNW 11.5 mph - N/A   Mostly Cloudy
8:53 AM 41.0 °F 34.3 °F 25.0 °F 53% 29.94 in 10.0 mi WNW 11.5 mph - N/A   Partly Cloudy
9:53 AM 42.1 °F 35.7 °F 26.1 °F 53% 29.95 in 10.0 mi West 11.5 mph - N/A   Overcast
10:53 AM 42.1 °F 34.9 °F 28.9 °F 60% 29.97 in 10.0 mi WNW 13.8 mph - N/A   Overcast
11:53 AM 43.0 °F 36.0 °F 33.1 °F 68% 29.97 in 10.0 mi WNW 13.8 mph - 0.00 in Rain Light Rain
12:53 PM 39.0 °F 32.3 °F 33.1 °F 79% 29.96 in 8.0 mi West 10.4 mph - 0.02 in Rain Light Rain
1:53 PM 37.9 °F 31.5 °F 34.0 °F 86% 29.92 in 8.0 mi West 9.2 mph - 0.01 in   Overcast
2:53 PM 39.0 °F 31.8 °F 35.1 °F 86% 29.94 in 9.0 mi West 11.5 mph - N/A   Overcast
3:07 PM 39.0 °F 31.8 °F 35.1 °F 86% 29.89 in 10.0 mi West 11.5 mph - N/A   Overcast
3:53 PM 39.0 °F 32.8 °F 35.1 °F 86% 29.95 in 10.0 mi WNW 9.2 mph - N/A   Overcast
4:10 PM 39.0 °F 33.4 °F 35.1 °F 86% 29.91 in 10.0 mi WNW 8.1 mph - N/A   Overcast
4:29 PM 39.0 °F 32.8 °F 35.1 °F 86% 29.93 in 10.0 mi WNW 9.2 mph - N/A   Mostly Cloudy
4:53 PM 37.9 °F 31.5 °F 35.1 °F 89% 29.97 in 8.0 mi NW 9.2 mph - N/A   Overcast
5:53 PM 35.1 °F 27.9 °F 32.0 °F 89% 30.01 in 5.0 mi NW 9.2 mph - N/A   Overcast
6:17 PM 35.1 °F 27.9 °F 33.1 °F 92% 29.97 in 2.5 mi NNW 9.2 mph - N/A   Overcast
6:49 PM 35.6 °F 26.6 °F 33.8 °F 93% 29.99 in 1.8 mi NW 13.8 mph - N/A   Overcast
6:53 PM 34.0 °F 25.5 °F 32.0 °F 92% 30.04 in 1.5 mi NW 11.5 mph - N/A   Overcast
7:05 PM 34.0 °F 24.6 °F 32.0 °F 92% 30.00 in 3.0 mi NNW 13.8 mph 20.7 mph N/A   Overcast
7:34 PM 34.0 °F 26.6 °F 30.9 °F 89% 30.00 in 10.0 mi NW 9.2 mph - N/A   Overcast
7:53 PM 34.0 °F 25.5 °F 30.0 °F 85% 30.05 in 10.0 mi NNW 11.5 mph - N/A   Overcast
8:23 PM 34.0 °F 24.2 °F 28.9 °F 82% 30.01 in 10.0 mi NNW 15.0 mph 20.7 mph N/A   Overcast
8:53 PM 33.1 °F 24.9 °F 28.9 °F 85% 30.05 in 10.0 mi NNW 10.4 mph - N/A   Overcast
9:53 PM 33.1 °F 25.5 °F 28.0 °F 82% 30.07 in 10.0 mi NW 9.2 mph - N/A   Overcast
10:24 PM 32.0 °F 23.0 °F 28.0 °F 85% 30.03 in 9.0 mi NNW 11.5 mph - N/A   Mostly Cloudy
10:53 PM 32.0 °F 24.2 °F 28.0 °F 85% 30.08 in 8.0 mi NNW 9.2 mph - 0.00 in   Overcast
11:15 PM 32.0 °F 24.2 °F 27.0 °F 82% 30.03 in 9.0 mi NNW 9.2 mph - N/A   Overcast
11:53 PM 32.0 °F 21.2 °F 27.0 °F 82% 30.09 in 9.0 mi NNW 16.1 mph 21.9 mph N/A   Overcast